Погода в Вузье

Франция     49°23′46″N   4°41′58″E
темп.,
°C
ветер,
м/с
пор.,
м/с
влажн.,
%
обл.,
%
осадки,
мм/ч
давл.,
гПа
погр.,
м
28 января, чт
чт2801:00+4ююз34100100 0.9 101289
04:00+4ю4899100 1.3 1008201
07:00+7юз51499100 9.0 1005445
10:00+9зюз91897100 3.6 1004832
13:00+11з81691100 5.0 1004930
16:00+11з81689100 0.3 10051136
19:00+9з51393100 0.5 1006675
22:00+9зюз51195100 0.3 1006359
29 января, пт
пт2901:00+9ююз51098100 0.6 1004367
04:00+10юз71498100 7.4 999796
07:00+9з81590100 10.1 999939
10:00+8з81488100 0.1 10021067
13:00+9з91577100 1.1 10021449
16:00+7зюз91687100 2.8 10011166
19:00+7з7148899 4.6 1003882
22:00+6з6129587 0.1 1005451
30 января, сб
сб3001:00+6зюз5109694 0.2 1005437
04:00+6зюз5996100 0.1 1004435
07:00+5ююз4895100 0.8 1000416
10:00+5вюв51093100 2.4 997479
13:00+6юв4697100 7.3 995266
16:00+8з3894100 1.1 994531
19:00+6юз2395100 1.8 99559
22:00+6ююз369783 0.7 996185
31 января, вс
вс3101:00+5ююз389591 0.7 996258
04:00+5ю3897100 0.0 995303
07:00+5юв3697100 0.3 994289
10:00+6юв4797100 1.3 993305
13:00+7ююв3692100 2.2 991381
16:00+7вюв2497100 0.8 989194
19:00+6всв3596100 1.0 989180
22:00+6ссв359497 0.0 989189
1 февраля, пн
пн101:00+5ссв359492 0.0 990134
04:00+5ссз229587 0.0 99380
07:00+3сз349568 0.0 99796
10:00+4сз349399 0.0 1001300
13:00+6зсз348799 0.0 1003414
16:00+5зюз4589100 0.0 1004494
19:00+5ююз1294100 0.1 100661
22:00+5ююв3796100 0.3 1007303